Location: Geçitköy
(36.7327°N, 29.8010°E)
Time: 19:10:02
(UTC+00:00)

DNEPR-1 R/B - Pass Details

Date: 12 January 2026
Orbit: 586 x 1327 km, 64.6° (Epoch: 11 February)

Event Time Altitude Azimuth Distance (km) Brightness Sun altitude
Rises 16:17:31 0° 205° (SSW) 3,134 7.8 -14.3°
Reaches altitude 10° 16:20:00 10° 204° (SSW) 2,124 6.9 -14.8°
Maximum altitude 16:24:42 76° 119° (ESE) 646 3.5 -15.7°
Enters shadow 16:27:23 22° 36° (NE) 1,314 4.8 -16.2°
